Regional Weather Roundup
Issued by NWS

Home | Current Version | Previous Version | Graphics & Text | Print | Product List | Glossary On
Versions: 1 2 3 4 5 6 7 8 9 10 11 12 13 14 15 16 17 18 19 20 21 22 23 24 25 26 27 28 29 30 31 32 33 34 35 36 37 38 39 40 41 42 43 44 45 46 47 48 49 50
000
ASUS43 KFSD 240810
RWRSD

WEATHER ROUNDUP FOR SOUTH DAKOTA
NATIONAL WEATHER SERVICE SIOUX FALLS SD
300 AM CDT SUN JUL 24 2016

NOTE: "FAIR" INDICATES FEW OR NO CLOUDS BELOW 12,000 FEET WITH NO
SIGNIFICANT WEATHER AND/OR OBSTRUCTIONS TO VISIBILITY.


SDZ001>005-009-010-012>017-240900-
NORTHWEST AND NORTH CENTRAL SOUTH DAKOTA

CITY           SKY/WX    TMP DP  RH WIND       PRES   REMARKS
BUFFALO          N/A     60  47  61 SW6       30.05R
FAITH            N/A     62  44  51 NW8       30.06R
MOBRIDGE       CLEAR     64  56  75 NW5       29.96R
$$

SDZ012>016-024>037-041>051-057-063-072>074-240900-
SOUTHWEST AND SOUTH CENTRAL SOUTH DAKOTA

CITY           SKY/WX    TMP DP  RH WIND       PRES   REMARKS
RAPID CTY ARPT CLEAR     61  43  51 NW10      30.11R
PIERRE         CLEAR     63  58  83 NW10      29.98R
CUSTER         PTCLDY    63  36  36 NE8       30.21S
ELLSWORTH AFB  CLEAR     70  42  36 N10       30.10S
PHILIP         CLEAR     59  49  69 N10       30.02F
PINE RIDGE     CLEAR     60  52  74 N7        30.08R
WINNER         FAIR      68  57  68 CALM      29.99S
$$

SDZ004>011-016>023-039-040-240900-
NORTHEAST SOUTH DAKOTA

CITY           SKY/WX    TMP DP  RH WIND       PRES   REMARKS
ABERDEEN       CLEAR     67  58  72 NW9       29.92R
WATERTOWN      CLEAR     71  67  87 NW6       29.90R
BROOKINGS      PTCLDY    69  67  93 NW3       29.90R
SISSETON         N/A     69  61  75 NW9       29.84R
$$

SDZ017-020-022-023-036>040-048>070-240900-
SOUTHEAST SOUTH DAKOTA

CITY           SKY/WX    TMP DP  RH WIND       PRES   REMARKS
SIOUX FALLS    CLEAR     72  67  84 N7        29.89R
HURON          CLEAR     65  62  90 W8        29.91R
CHAMBERLAIN    PTCLDY    66  63  89 W6        29.97R
MITCHELL       CLEAR     68  65  90 W6        29.92R
YANKTON        PTCLDY    73  66  78 NW10      29.90R
$$

ABBREVIATIONS USED IN REMARKS
   TC - TEMPERATURE IN CELSIUS
  WCI - WIND CHILL INDEX
   HX - HEAT INDEX
  VSB - VISIBILITY




USA.gov is the U.S. government's official web portal to all federal, state and local government web resources and services.